Location: Gokavaram
(16.9752°N, 81.0696°E)
Time: 11:32:30
(UTC+00:00)

Meteor 2-13 Rocket - Pass Details

Date: 15 May 2026
Orbit: 935 x 957 km, 82.5° (Epoch: 6 June)

Event Time Altitude Azimuth Distance (km) Brightness Sun altitude
Exits shadow 22:37:12 27° 205° (SSW) 1,749 5.4 -19.8°
Maximum altitude 22:40:34 59° 275° (W) 1,089 4.5 -19.1°
Drops below altitude 10° 22:46:37 10° 354° (N) 2,682 7.1 -17.8°
Sets 22:49:09 0° 359° (N) 3,630 7.8 -17.3°
